Location: Unspecified
(42.4122°N, 0.0000°E)
Time: 10:30:31
(UTC+00:00)

ASUSAT - Visible Passes

Search period start: 04 April 2026 00:00
Search period end: 14 April 2026 00:00
Orbit: 739 x 790 km, 100.2° (Epoch: 29 March)

Date Brightness Start Highest point End Pass type
(mag) Time Alt. Az. Time Alt. Az. Time Alt. Az.
4 Apr 8.7 00:30:44 10° NNE 00:31:35 15° NNE 00:31:35 15° NNE visible
4 Apr 8.1 02:09:57 10° N 02:11:46 18° NNW 02:11:46 18° NNW visible
5 Apr 8.1 01:32:27 10° N 01:34:24 23° N 01:34:24 23° N visible
6 Apr 8.3 00:55:25 10° NNE 00:57:01 20° NNE 00:57:01 20° NNE visible
6 Apr 8.2 02:35:34 10° NNW 02:37:13 15° NW 02:37:13 15° NW visible
7 Apr 8.7 00:18:56 10° NE 00:19:39 13° NE 00:19:39 13° NE visible
7 Apr 7.9 01:57:36 10° N 01:59:50 23° NNW 01:59:50 23° NNW visible
8 Apr 7.9 01:20:18 10° NNE 01:22:28 26° N 01:22:28 26° N visible
8 Apr 8.4 03:02:17 10° NW 03:02:39 10° NW 03:02:39 10° NW visible
9 Apr 8.3 00:43:27 10° NNE 00:45:05 20° NNE 00:45:05 20° NNE visible
9 Apr 8.0 02:23:00 10° NNW 02:25:16 19° NW 02:25:16 19° NW visible
10 Apr 8.7 00:07:16 10° NE 00:07:42 12° NE 00:07:42 12° NE visible
10 Apr 7.7 01:45:21 10° N 01:47:54 27° NNW 01:47:54 27° NNW visible
11 Apr 7.9 01:08:13 10° NNE 01:10:31 27° NNE 01:10:31 27° NNE visible
11 Apr 8.2 02:48:50 10° NNW 02:50:42 14° NW 02:50:42 14° NW visible
12 Apr 8.3 00:31:35 10° NNE 00:33:08 19° NE 00:33:08 19° NE visible
12 Apr 7.7 02:10:35 10° N 02:13:19 24° NNW 02:13:19 24° NNW visible
13 Apr 7.5 01:33:09 10° N 01:35:56 32° N 01:35:56 32° N visible
